DW9584 Weather Reports


time (UTC)temp
C
wind
direction
speed
KPH
gust
KPH
rain 1hr
cm
rain 24hr
cm
rain mn
cm
humidity
%
barometer
mb
20260904203042 28 104 0.0 6.4 0.00 0.51 0.51 65 1011.4
20260904201523 28 167 0.0 6.4 0.00 0.51 0.51 65 1011.6
20260904200020 28 281 0.0 4.8 0.00 0.51 0.51 66 1011.8
20260904194521 28 236 0.0 6.4 0.00 0.51 0.51 66 1011.9
20260904193011 29 289 1.6 6.4 0.00 0.51 0.51 63 1012.1
20260904191510 29 313 1.6 6.4 0.00 0.51 0.51 64 1012.1
20260904190037 28 118 1.6 9.7 0.00 0.51 0.51 64 1012.3
20260904184536 29 328 0.0 6.4 0.00 0.51 0.51 65 1012.6
20260904183028 29 330 3.2 8.0 0.00 0.51 0.51 64 1012.7
20260904181526 29 195 3.2 9.7 0.00 0.51 0.51 65 1012.8
20260904180022 28 313 0.0 6.4 0.00 0.51 0.51 67 1012.7
20260904174519 28 214 0.0 8.0 0.00 0.51 0.51 65 1012.7
20260904173034 28 80 0.0 4.8 0.00 0.51 0.51 67 1012.9
20260904171516 28 285 0.0 11.3 0.00 0.51 0.51 68 1012.9
20260904170014 28 158 0.0 6.4 0.00 0.51 0.51 68 1012.9
20260904164530 27 228 0.0 6.4 0.00 0.51 0.51 68 1012.9
20260904163007 27 8 0.0 8.0 0.00 0.51 0.51 70 1013.0
20260904161502 28 297 1.6 6.4 0.00 0.53 0.51 68 1013.1
20260904160003 27 338 0.0 3.2 0.00 0.53 0.51 69 1013.3
20260904154528 27 326 0.0 6.4 0.00 0.53 0.51 70 1013.1
20260904153018 27 187 0.0 4.8 0.00 0.53 0.51 73 1013.3
20260904151518 27 39 0.0 8.0 0.00 0.53 0.51 72 1013.2
20260904150025 26 236 1.6 8.0 0.00 0.53 0.51 73 1013.3
20260904144511 26 150 0.0 4.8 0.00 0.53 0.51 75 1013.1
20260904143010 26 302 1.6 11.3 0.00 0.53 0.51 75 1013.2
20260904141506 26 290 1.6 4.8 0.00 0.53 0.51 78 1013.0
20260904140004 25 268 0.0 11.3 0.00 0.53 0.51 79 1013.0
20260904134539 25 290 3.2 11.3 0.00 0.53 0.51 80 1013.0
20260904133025 24 303 1.6 8.0 0.00 0.53 0.51 82 1013.1
20260904131518 24 239 1.6 8.0 0.00 0.53 0.51 84 1013.1
20260904130018 23 269 1.6 8.0 0.00 0.53 0.51 85 1013.1
20260904124513 23 286 0.0 14.5 0.00 0.53 0.51 87 1013.2
20260904123012 22 323 1.6 9.7 0.00 0.53 0.51 90 1013.1
20260904121509 22 273 0.0 6.4 0.00 0.53 0.51 91 1013.1
20260904120030 21 338 3.2 12.9 0.00 0.53 0.51 93 1013.1
20260904114537 21 329 1.6 4.8 0.00 0.53 0.51 94 1012.9
20260904113031 21 254 1.6 6.4 0.00 0.53 0.51 95 1012.8
20260904111525 21 251 0.0 6.4 0.00 0.53 0.51 95 1012.6
20260904110020 21 248 0.0 4.8 0.00 0.56 0.51 95 1012.4
20260904104519 21 297 0.0 4.8 0.00 0.56 0.51 95 1012.2
20260904103015 21 307 0.0 3.2 0.00 0.56 0.51 95 1012.0
20260904101512 21 299 0.0 4.8 0.00 0.56 0.51 96 1012.0
20260904100031 21 292 0.0 3.2 0.00 0.61 0.51 96 1012.2
20260904094539 21 343 0.0 6.4 0.00 0.61 0.51 96 1012.2
20260904093040 22 283 0.0 8.0 0.00 0.64 0.51 96 1012.1
20260904091534 22 252 0.0 4.8 0.03 0.64 0.51 96 1012.3
20260904090025 22 245 0.0 3.2 0.03 0.66 0.51 96 1012.4
20260904084522 22 181 0.0 4.8 0.03 0.99 0.51 96 1012.5
20260904083018 22 214 0.0 3.2 0.03 1.47 0.51 96 1012.3
20260904081515 22 244 0.0 4.8 0.00 1.47 0.48 96 1012.3
20260904080012 22 191 0.0 0.0 0.00 1.47 0.48 96 1012.4
20260904074510 22 191 0.0 3.2 0.00 1.47 0.48 96 1012.4
20260904073032 22 351 0.0 1.6 0.00 1.47 0.48 96 1012.6
20260904071528 22 351 0.0 3.2 0.00 1.47 0.48 96 1012.3
20260904070025 22 351 0.0 0.0 0.00 1.47 0.48 95 1011.9
20260904064528 22 351 0.0 0.0 0.00 1.47 0.48 96 1011.8
20260904063027 22 351 0.0 0.0 0.00 1.52 0.48 95 1011.7
20260904061526 22 351 0.0 0.0 0.00 1.57 0.48 95 1011.9
20260904060015 22 351 0.0 1.6 0.00 1.88 0.48 95 1011.9
20260904054540 22 351 0.0 0.0 0.00 2.49 0.48 95 1012.2
20260904053035 22 351 0.0 0.0 0.03 2.49 0.48 95 1012.3
20260904051533 22 351 0.0 0.0 0.25 2.49 0.48 94 1012.4
20260904050040 22 351 0.0 0.0 0.48 2.49 0.48 94 1012.3
20260904044530 22 351 0.0 0.0 0.48 2.49 0.48 93 1012.3
20260904043025 23 351 0.0 3.2 0.46 2.46 0.46 92 1012.3
20260904041526 23 110 0.0 17.7 0.23 2.24 0.23 91 1013.4
20260904040036 24 287 0.0 3.2 0.00 2.01 0.00 91 1013.7
20260904034534 24 201 0.0 0.0 0.00 2.01 2.01 91 1013.0
20260904033035 24 201 0.0 0.0 0.00 2.01 2.01 91 1013.1
20260904031534 24 201 0.0 0.0 0.00 2.01 2.01 91 1013.2
20260904030030 24 201 0.0 0.0 0.00 2.01 2.01 90 1013.4
20260904024529 24 201 0.0 1.6 0.00 2.01 2.01 90 1013.5
20260904023036 24 201 0.0 0.0 0.00 2.01 2.01 90 1013.3
20260904021539 24 201 0.0 0.0 0.00 2.01 2.01 90 1013.5
20260904020034 24 201 0.0 0.0 0.00 2.01 2.01 89 1013.2
20260904014533 25 201 0.0 0.0 0.00 2.01 2.01 88 1013.5
20260904013045 25 201 0.0 3.2 0.00 2.01 2.01 88 1013.6
20260904011535 25 202 0.0 0.0 0.00 2.01 2.01 88 1013.9
20260904010009 25 202 0.0 3.2 0.00 2.01 2.01 89 1014.0
20260904004506 25 251 0.0 0.0 0.00 2.01 2.01 89 1013.8
20260904003005 25 251 0.0 0.0 0.00 2.01 2.01 88 1013.8
20260904001503 25 251 0.0 0.0 0.00 2.01 2.01 87 1013.7
20260904000003 26 251 0.0 0.0 0.00 2.01 2.01 86 1013.6
20260903234521 26 242 0.0 3.2 0.00 2.01 2.01 85 1013.5
20260903233025 26 193 0.0 1.6 0.00 2.01 2.01 84 1013.5
20260903231516 26 193 0.0 3.2 0.00 2.01 2.01 83 1013.3
20260903230012 27 226 0.0 3.2 0.00 2.01 2.01 83 1013.1
20260903224516 27 182 0.0 8.0 0.00 2.01 2.01 82 1013.2
20260903223006 27 224 0.0 8.0 0.00 2.01 2.01 81 1013.1
20260903221504 28 279 0.0 3.2 0.00 2.01 2.01 80 1013.1
20260903220026 28 274 0.0 6.4 0.00 2.01 2.01 79 1013.1
20260903214534 28 292 0.0 6.4 0.00 2.01 2.01 79 1012.8
20260903213032 28 304 0.0 3.2 0.00 2.01 2.01 79 1012.7
20260903211518 28 156 0.0 3.2 0.00 2.01 2.01 77 1012.8
20260903210014 28 100 0.0 3.2 0.00 2.01 2.01 77 1012.9
20260903204511 29 203 0.0 3.2 0.00 2.01 2.01 74 1012.9